Change the Weather History Date:

Monday, November 4, 2013

  Actual Average Record
Temperature  
Mean Temperature 78 °F -  
Max Temperature 81 °F 84 °F 94 °F (1986)
Min Temperature 75 °F 67 °F 46 °F (1954)
Cooling Degree Days 13    
Growing Degree Days 28 (Base 50)    
Moisture  
Dew Point 62 °F    
Average Humidity 59    
Maximum Humidity 69    
Minimum Humidity 40    
Precipitation  
Precipitation 0.00 in - - ()
Sea Level Pressure  
Sea Level Pressure 30.05 in    
Wind  
Wind Speed 18 mph (NE)    
Max Wind Speed 23 mph    
Max Gust Speed 31 mph    
Visibility 10 miles    
Events Rain    
Averages and records for this station are not official NWS values.
T = Trace of Precipitation, MM = Missing Value Source: NWS Daily Summary

Daily Weather History Graph

Daily Weather History Graph

Search for Another Location

Airport or City:

Trip Planner

Search our weather history database for the weather conditions in past years. The results will help you decide how hot, cold, wet, or windy it might be!

Date:

Astronomy

Nov. 04, 2013 Rise Set
Actual Time 6:31 AM EST 5:36 PM EST
Civil Twilight 6:07 AM EST 6:00 PM EST
Nautical Twilight 5:40 AM EST 6:27 PM EST
Astronomical Twilight 5:12 AM EST 6:54 PM EST
Moon 7:34 AM EST (11/4) 6:45 PM EST (11/4)
Length of Visible Light 11h 52m
Length of Day
11h 04m
New Moon, 2% of the Moon is Illuminated
Nov 4
New Moon
Nov 10
First Quarter
Nov 17
Full
Nov 25
Last Quarter
Dec 2
New

Hourly Weather History & Observations

Time (EST) Temp. Heat Index Dew Point Humidity Pressure Visibility Wind Dir Wind Speed Gust Speed Precip Events Conditions
12:53 AM 77.0 °F - 60.1 °F 56% 30.03 in 10.0 mi NE 18.4 mph 25.3 mph N/A   Unknown
1:53 AM 75.9 °F - 60.1 °F 58% 30.02 in 10.0 mi NE 13.8 mph - N/A   Unknown
2:53 AM 75.9 °F - 59.0 °F 56% 30.02 in 10.0 mi NE 15.0 mph 25.3 mph N/A   Unknown
3:53 AM 75.9 °F - 59.0 °F 56% 30.02 in 10.0 mi NE 16.1 mph - N/A   Unknown
4:53 AM 75.9 °F - 57.9 °F 54% 30.02 in 10.0 mi ENE 16.1 mph 25.3 mph N/A   Unknown
5:53 AM 75.9 °F - 59.0 °F 56% 30.03 in 10.0 mi NE 19.6 mph 27.6 mph N/A   Mostly Cloudy
6:53 AM 75.9 °F - 57.0 °F 52% 30.04 in 10.0 mi NE 15.0 mph 23.0 mph N/A   Mostly Cloudy
7:53 AM 78.1 °F - 55.0 °F 45% 30.07 in 10.0 mi NE 17.3 mph 24.2 mph N/A   Partly Cloudy
8:53 AM 80.1 °F 80.0 °F 54.0 °F 40% 30.08 in 10.0 mi NE 12.7 mph - N/A   Partly Cloudy
9:53 AM 75.9 °F - 61.0 °F 60% 30.09 in 10.0 mi NNE 13.8 mph 18.4 mph N/A Rain Light Rain
10:53 AM 79.0 °F - 66.0 °F 64% 30.07 in 10.0 mi NE 18.4 mph 26.5 mph N/A   Overcast
11:53 AM 81.0 °F 82.5 °F 64.0 °F 56% 30.05 in 10.0 mi ENE 23.0 mph 27.6 mph N/A   Mostly Cloudy
12:53 PM 80.1 °F 81.9 °F 64.9 °F 60% 30.04 in 10.0 mi ENE 21.9 mph 27.6 mph N/A   Unknown
1:53 PM 81.0 °F 83.0 °F 66.0 °F 60% 30.02 in 10.0 mi NE 21.9 mph 29.9 mph N/A   Mostly Cloudy
2:53 PM 78.1 °F - 66.0 °F 66% 30.02 in 10.0 mi ENE 17.3 mph 31.1 mph N/A Rain Light Rain
3:53 PM 77.0 °F - 66.0 °F 69% 30.03 in 10.0 mi ENE 20.7 mph 31.1 mph N/A Rain Light Rain
4:53 PM 78.1 °F - 66.0 °F 66% 30.04 in 10.0 mi NE 20.7 mph 29.9 mph N/A   Overcast
5:53 PM 78.1 °F - 64.0 °F 62% 30.04 in 10.0 mi ENE 20.7 mph 31.1 mph N/A   Overcast
6:53 PM 78.1 °F - 64.0 °F 62% 30.05 in 10.0 mi ENE 23.0 mph 28.8 mph N/A   Overcast
7:53 PM 78.1 °F - 64.0 °F 62% 30.06 in 10.0 mi ENE 18.4 mph 27.6 mph N/A   Overcast
8:53 PM 78.1 °F - 63.0 °F 60% 30.07 in 10.0 mi ENE 20.7 mph 29.9 mph N/A   Scattered Clouds
9:53 PM 77.0 °F - 64.0 °F 64% 30.07 in 10.0 mi NE 18.4 mph - N/A   Unknown
10:20 PM 77.0 °F - 64.4 °F 65% 30.07 in 10.0 mi ENE 21.9 mph 27.6 mph N/A   Overcast
10:35 PM 77.0 °F - 64.4 °F 65% 30.07 in 10.0 mi NE 21.9 mph 28.8 mph N/A   Overcast
10:53 PM 78.1 °F - 64.9 °F 64% 30.07 in 10.0 mi NE 19.6 mph 27.6 mph N/A   Overcast
11:53 PM 78.1 °F - 64.9 °F 64% 30.06 in 10.0 mi NE 19.6 mph 28.8 mph N/A   Overcast